FW2454 Weather Reports


time (UTC)temp
C
wind
direction
speed
KPH
gust
KPH
rain 1hr
cm
rain 24hr
cm
rain mn
cm
humidity
%
barometer
mb
20260505041511 23 167 0.0 0.0 0.00 0.00 0.00 94 1012.4
20260505040006 24 205 0.0 0.0 0.00 0.00 0.00 94 1012.4
20260505034502 25 205 0.0 0.0 0.00 0.00 0.00 94 1012.4
20260505033002 25 205 0.0 1.6 0.00 0.00 0.00 94 1012.5
20260505031501 25 200 0.0 0.0 0.00 0.00 0.00 94 1012.6
20260505030003 25 200 0.0 0.0 0.00 0.00 0.00 94 1012.7
20260505024601 25 200 0.0 1.6 0.00 0.00 0.00 94 1012.6
20260505023109 25 215 0.0 0.0 0.00 0.00 0.00 93 1012.5
20260505021601 25 215 0.0 0.0 0.00 0.00 0.00 93 1012.4
20260505014559 25 215 0.0 0.0 0.00 0.00 0.00 93 1012.3
20260505013057 25 215 0.0 0.0 0.00 0.00 0.00 93 1012.2
20260505011558 25 215 0.0 0.0 0.00 0.00 0.00 92 1012.1
20260505010103 26 215 0.0 0.0 0.00 0.00 0.00 91 1011.8
20260505004556 26 215 0.0 0.0 0.00 0.00 0.00 91 1011.8
20260505003101 26 215 0.0 0.0 0.00 0.00 0.00 91 1011.6
20260505001555 26 155 0.0 0.0 0.00 0.00 0.00 91 1011.4
20260505000111 26 155 0.0 1.6 0.00 0.00 0.00 90 1011.4
20260504234553 26 130 0.0 0.0 0.00 0.00 0.00 89 1011.3
20260504233055 27 320 0.0 0.0 0.00 0.00 0.00 88 1011.2
20260504231553 27 20 0.0 0.0 0.00 0.00 0.00 87 1011.1
20260504230053 27 287 0.0 1.6 0.00 0.00 0.00 87 1011.0
20260504224552 27 318 0.0 3.2 0.00 0.00 0.00 85 1011.0
20260504223053 28 296 0.0 1.6 0.00 0.00 0.00 84 1010.9
20260504221553 27 307 0.0 4.8 0.00 0.00 0.00 85 1010.7
20260504220110 28 353 1.6 8.0 0.00 0.00 0.00 84 1010.5
20260504214554 28 309 0.0 9.7 0.00 0.00 0.00 83 1010.3
20260504213054 28 313 0.0 6.4 0.00 0.00 0.00 83 1010.2
20260504211553 29 297 3.2 9.7 0.00 0.00 0.00 82 1010.1
20260504210050 29 20 3.2 14.5 0.00 0.00 0.00 82 1010.1
20260504204547 29 15 4.8 17.7 0.00 0.00 0.00 80 1010.1
20260504203049 29 300 0.0 16.1 0.00 0.00 0.00 81 1010.1
20260504201547 30 296 1.6 9.7 0.00 0.00 0.00 80 1010.1
20260504200051 29 70 1.6 12.9 0.00 0.00 0.00 81 1010.1
20260504194548 29 293 1.6 16.1 0.00 0.00 0.00 80 1010.1
20260504193045 30 293 4.8 14.5 0.00 0.00 0.00 77 1010.1
20260504191553 30 302 1.6 9.7 0.00 0.00 0.00 79 1010.2
20260504190050 30 330 1.6 11.3 0.00 0.00 0.00 75 1010.2
20260504184552 30 296 4.8 11.3 0.00 0.00 0.00 75 1010.3
20260504183048 30 297 1.6 17.7 0.00 0.00 0.00 76 1010.3
20260504181546 30 28 1.6 11.3 0.00 0.00 0.00 75 1010.6
20260504180037 30 354 1.6 12.9 0.00 0.00 0.00 76 1010.7
20260504174534 30 15 1.6 14.5 0.00 0.00 0.00 74 1010.9
20260504173033 30 311 4.8 14.5 0.00 0.00 0.00 76 1011.2
20260504171532 30 359 3.2 11.3 0.00 0.00 0.00 78 1011.3
20260504081537 21 84 0.0 0.0 0.00 0.03 0.00 93 1011.2